Location: Newark
(55.8429°N, 38.1995°E)
Time: 20:13:35
(UTC+00:00)

ISS - Pass Details

Date: 30 October 2019
Orbit: 412 x 421 km, 51.6° (Epoch: 12 November)

Event Time Altitude Azimuth Distance (km) Brightness Sun altitude
Exits shadow 01:39:03 14° 148° (SSE) 1,271 -1.1 -24.1°
Maximum altitude 01:39:07 14° 147° (SSE) 1,271 -1.1 -24.1°
Drops below altitude 10° 01:41:00 10° 113° (ESE) 1,507 -0.2 -23.8°
Sets 01:43:49 0° 88° (E) 2,374 1.5 -23.4°
